This demonstration page uses our WeatherBlox Daily Observations layout. Learn more.

Left ArrowRight Arrow

Hourly Observations for October 17, 2018

Temp ( °F °C ) Dew Point ( °F °C ) Humidity (%) Winds ( mph kmh ) Pressure ( in mb ) Visibility ( mi km ) Precip ( " mm )
12:57 am 00:57 Clear 42 5.6 35 1.7 76 76 WNW 8 13 30.35 1028 10 16 0.00 0.00
1:57 am 01:57 Clear 40 4.4 35 1.7 83 83 undefined N/A 30.37 1028 10 16 0.00 0.00
2:57 am 02:57 Clear 39 3.9 34 1.1 82 82 WNW 9 15 30.38 1029 10 16 0.00 0.00
3:57 am 03:57 Clear 37 2.8 33 0.6 86 86 WNW 9 15 30.40 1029 10 16 0.00 0.00
4:57 am 04:57 Clear 40 4.4 35 1.7 83 83 NW 9 15 30.40 1029 10 16 0.00 0.00
5:57 am 05:57 Clear 37 2.8 33 0.6 86 86 WNW 8 13 30.42 1030 10 16 0.00 0.00
6:57 am 06:57 Clear 38 3.3 33 0.6 83 83 NW 8 13 30.44 1031 10 16 0.00 0.00
7:57 am 07:57 Sunny 36 2.2 33 0.6 89 89 W 8 13 30.48 1032 10 16 0.00 0.00
8:57 am 08:57 Sunny 42 5.6 36 2.2 79 79 WNW 7 11 30.50 1033 10 16 0.00 0.00
9:57 am 09:57 Sunny 49 9.4 39 3.9 69 69 WNW 5 7 30.50 1033 10 16 0.00 0.00
10:57 am 10:57 Sunny 57 13.9 38 3.3 49 49 WNW 5 7 30.50 1033 10 16 0.00 0.00
11:57 am 11:57 Sunny 60 15.6 36 2.2 41 41 W 7 11 30.50 1033 10 16 0.00 0.00
1:57 pm 13:57 Sunny 65 18.3 36 2.2 34 34 WSW 6 9 30.46 1032 10 16 0.00 0.00
2:57 pm 14:57 Sunny 66 18.9 36 2.2 33 33 VRB 5 7 30.44 1031 10 16 0.00 0.00
3:57 pm 15:57 Sunny 67 19.4 36 2.2 32 32 Calm 30.43 1030 10 16 0.00 0.00
4:57 pm 16:57 Sunny 67 19.4 34 1.1 30 30 WSW 7 11 30.42 1030 10 16 0.00 0.00
5:57 pm 17:57 Sunny 66 18.9 36 2.2 33 33 SSW 8 13 30.42 1030 10 16 0.00 0.00
6:57 pm 18:57 Clear 61 16.1 35 1.7 38 38 S 5 7 30.43 1031 10 16 0.00 0.00
7:57 pm 19:57 Clear 54 12.2 37 2.8 53 53 S 8 13 30.46 1032 10 16 0.00 0.00
8:57 pm 20:57 Clear 51 10.6 38 3.3 61 61 SSW 8 13 30.46 1032 10 16 0.00 0.00
9:57 pm 21:57 Clear 50 10 37 2.8 61 61 SSW 8 13 30.46 1032 10 16 0.00 0.00
10:57 pm 22:57 Clear 48 8.9 37 2.8 66 66 SSW 9 15 30.45 1031 10 16 0.00 0.00
11:57 pm 23:57 Clear 49 9.4 38 3.3 66 66 SSW 10 17 30.43 1031 10 16 0.00 0.00

Powered by AerisWeather